Regional Weather Roundup
Issued by NWS Grand Forks, ND

Home | Current Version | Previous Version | Text Only | Print | Product List | Glossary On
Versions: 1 2 3 4 5 6 7 8 9 10 11 12 13 14 15 16 17 18 19 20 21 22 23 24 25 26 27 28 29 30 31 32 33 34 35 36 37 38 39 40 41 42 43 44 45 46 47 48 49 50
000
ASUS43 KFGF 050231
RWRFGF
PRAIRIE TO PINES  WEATHER ROUNDUP
NATIONAL WEATHER SERVICE EASTERN NORTH DAKOTA/GRAND FORKS ND
800 PM CST WED MAR 04 2015

 **SATELLITE DATA USED TO AUGMENT SKY COVER AT AUTOMATED STATIONS**
 *****  WEATHER ACROSS EASTERN NORTH DAKOTA  *****

CITY           SKY/WX    TMP DP  RH WIND       PRES   REMARKS
GRAND FORKS    CLEAR     -6 -13  71 NW5       30.38S WCI -17
GRAND FRKS AFB CLEAR     -6 -14  68 NW7       30.37S WCI -21
GRAND FRKS NWS   N/A     -6 N/A N/A NW3         N/A
DEVILS LAKE    CLEAR     -8 -18  59 W8        30.32F WCI -23
FARGO          FAIR       0  -9  65 W9        30.40R WCI -15
WAHPETON ARPT  CLEAR      0  -8  71 NW9       30.40R WCI -16
$$

 ***** WEATHER ACROSS CENTRAL AND WESTERN NORTH DAKOTA  *****

CITY           SKY/WX    TMP DP  RH WIND       PRES   REMARKS
BISMARCK       CLEAR      2 -10  57 NE5       30.35S WCI  -8
MINOT          CLEAR     -5 -15  62 SW3       30.30F
JAMESTOWN      CLEAR     -5 -13  68 W6        30.35R WCI -18
MINOT AFB      CLEAR     -8 -14  76 CALM      30.30F
GARRISON         N/A     -6 -13  71 CALM      30.30S
WILLISTON        N/A    N/A N/A N/A MISG      30.25F
DICKINSON      CLEAR      0 -10  63 S5        30.19S WCI -10
HETTINGER      CLEAR      1 -10  60 CALM      30.22S
$$

 *****  OTHER AIRPORT OBSERVATIONS IN OUR AREA  *****

CITY           SKY/WX    TMP DP  RH WIND       PRES   REMARKS
WALHALLA         N/A     -4 -13  65 W7        30.35S WCI -18
GRAFTON AIRPOR NOT AVBL
VALLEY CITY AR FAIR      -4 -11  71 NW6       30.35S WCI -16
CANDO          FAIR      -9 -17  70 W8        30.32S WCI -26
CAVALIER APRT  FAIR      -4 -11  71 W6        30.37S WCI -16
GWINNER        CLEAR      0  -9  65 W8        30.39S WCI -15
SHEYENNE NWR     N/A     -4 -13  66 NW6       29.95S WCI -16
ROLLA          FAIR      -9 -17  70 SW9       30.26F WCI -27
 ***** THE ABOVE OBSERVATIONS ARE NON NWS ARE NOT QUALITY
       CONTROLLED AND MAY MIS-REPORT RAIN FOR SNOW...
$$

  *****  WEATHER ACROSS NORTHERN MINNESOTA  *****

CITY           SKY/WX    TMP DP  RH WIND       PRES   REMARKS
FLAG ISLAND    CLEAR     -6 -15  65 W7        30.27S WCI -20
WARROAD        FAIR      -8 -15  71 W8        30.30S WCI -23
ROSEAU         CLEAR     -6 -13  71 W6        30.31S WCI -18
HALLOCK        CLEAR     -6 -13  71 W3        30.36S
THF RVR FALLS  CLEAR     -6 -18  54 W6        30.33S WCI -18
BAUDETTE       CLEAR     -6 -15  65 W8        30.26R WCI -21
WASKISH        CLEAR     -8 -11  84 W7        30.28S WCI -22
CROOKSTON      CLEAR     -4 -11  71 W3        30.39S
$$
  *****  WEATHER ACROSS CENTRAL AND WEST MINNESOTA  *****

CITY           SKY/WX    TMP DP  RH WIND       PRES   REMARKS
FOSSTON        CLEAR    -13 -18  77 CALM      30.32F
BEMIDJI        CLEAR    -11 -17  75 W8        30.29S WCI -28
PARK RAPIDS    CLEAR     -7 -15  68 NW7       30.28R WCI -21
ELBOW LAKE     FAIR      -4  -9  81 NW7       30.35S WCI -18
WADENA         CLEAR     -6 -11  77 NW5       30.31R WCI -17
DETROIT LAKES  CLEAR     -4  -8  84 NW6       30.33R WCI -16
MOORHEAD       FAIR       1  -6  71 NW9       30.39F WCI -14
FERGUS FALLS   CLEAR     -2  -9  71 NW6       30.40S WCI -14
MORRIS MN      CLEAR     -8 -13  77 W8        30.36S WCI -23
STAPLES        CLEAR     -8 -15  71 NW6       30.30S WCI -21
$$
  *****  WEATHER ELSEWHERE ACROSS MINNESOTA  *****

CITY           SKY/WX    TMP DP  RH WIND       PRES   REMARKS
DULUTH         CLEAR     -3 -16  53 W7        30.22R WCI -16
INTRNTL FALLS  CLEAR     -7 -15  68 W6        30.25R WCI -20
ELY            CLEAR     -8 -17  65 W5        30.21R WCI -19
CLOQUET        CLEAR     -2 -17  50 NW9       30.25S WCI -18
WHEATON        CLEAR     -6 -11  77 W8        30.41S WCI -21
BRAINERD       CLEAR     -3 -15  56 NW6       30.30R WCI -15
HIBBING        CLEAR     -4 -15  59 W8        30.24R WCI -19
ALEXANDRIA     CLEAR     -7 -13  75 NW6       30.32R WCI -20
SAINT CLOUD    FAIR      -3 -14  59 NW8       30.34R WCI -18
MINNEAPOLIS    PTCLDY     2 -11  54 NW12      30.35R WCI -15
$$

  *****  WEATHER ACROSS SOUTH DAKOTA  *****

CITY           SKY/WX    TMP DP  RH WIND       PRES   REMARKS
SIOUX FALLS    CLEAR      1  -7  68 NW7       30.38R WCI -12
BROOKINGS      NOT AVBL
WATERTOWN      CLEAR     -6 -14  68 NW7       30.33R WCI -20
HURON          CLEAR     -1 -10  65 N8        30.41R WCI -15
SISSETON         N/A     -2 -11  65 NW10      30.38  WCI -19
ABERDEEN       CLEAR     -2 -13  59 NW6       30.41R WCI -14
MITCHELL       CLEAR      3  -6  66 N6        30.42R WCI  -8
PIERRE         CLEAR      4  -8  57 N7        30.35R WCI  -8
MOBRIDGE       CLEAR      3  -9  57 NE8       30.31S WCI -10
RAPID CITY     CLEAR      4  -4  69 N7        30.22R WCI  -8
$$

  *****  SOME WEATHER IN NEARBY STATES *****

CITY           SKY/WX    TMP DP  RH WIND       PRES   REMARKS
GLASGOW MT     PTCLDY    11  -1  58 SE10      30.13F WCI  -3
GREAT FALLS MT CLEAR     30  11  45 SW14      29.99R WCI  19
CHEYENNE WY    CLEAR     11  -4  51 NW7       30.10R WCI   0
SCOTTSBLUFF NE CLEAR     17   4  56 NW5       30.20R WCI  10
OMAHA NE       PTCLDY    17   0  47 N12       30.41R WCI   4
DES MOINES IA  PTCLDY    17   3  54 NW15      30.37R WCI   2
DAVENPORT IA   PTCLDY    10   0  63 NW7       30.37R WCI  -1
CHICAGO IL     MOCLDY    15  -1  49 NW12      30.27R WCI   2
EAU CLAIRE WI  CLEAR      2 -13  49 W7        30.29R WCI -11
LA CROSSE WI   CLEAR      9  -3  58 W10       30.33R WCI  -5
$$

  *****  SOME NATIONAL WEATHER *****

CITY           SKY/WX    TMP DP  RH WIND       PRES   REMARKS
LA GUARDIA NY  LGT RAIN  43  39  86 SW8       29.90R FOG
RALEIGH NC     MOCLDY    64  53  67 SW7       29.89R
ATLANTA GA     MOCLDY    68  60  75 S9        29.93S
NEW ORLEANS LA PTCLDY    73  68  84 S10       29.92R
OKLAHOMA CITY  HVY SNOW  25  19  80 NE18G25   30.32R VSB 1/4 WCI  11
ALBUQUERQUE NM PTCLDY    44  14  29 N16       30.06R
SALT LAKE CITY CLEAR     36  19  50 CALM      30.28R
LOS ANGELES CA PTCLDY    61  46  57 W13       30.10R
BOISE ID       CLEAR     40  11  30 NW5       30.27S
SEATTLE WA     MOCLDY    48  23  37 N7        30.26F
$$

*** WEATHER ACROSS MANITOBA...SASKATCHEWAN AND ONTARIO ***
                ***ONTARIO***

CITY           SKY/WX    TMP DP  RH WIND       PRES   REMARKS
GERALDTON      CLEAR     -9 -15  77 SW5       30.07R WCI -21
THUNDER BAY    CLEAR     -6 -17  59 SW7       30.23R WCI -20
SIOUX LOOKOUT  CLEAR     -4 -17  54 W5        30.16R WCI -15
TORONTO        CLOUDY    25  14  63 NW16      29.99R WCI  12
BIG TROUT LK   PTCLDY    -6 -13  71 W9        30.03F WCI -22
PICKLE LAKE    CLEAR     -4 -18  50 W7        30.07R WCI -18
DRYDEN         CLEAR     -4 -15  59 W9        30.17R WCI -20
KENORA         CLEAR     -6 -17  59 W7        30.22R WCI -20
$$
                *** MANITOBA***

CITY           SKY/WX    TMP DP  RH WIND       PRES   REMARKS
BRANDON        CLEAR    -11 -18  70 W12       30.29F WCI -31
DAUPHIN        CLEAR     -6 -17  59 W12       30.26F WCI -24
ISLAND LAKE    CLEAR     -4 -17  54 W10G17    30.11R WCI -21
PILOT MOUND      N/A    -11 -18  70 SW5         N/A  WCI -23
THE PAS        PTCLDY    -6 -18  54 SW6       30.15F WCI -18
THOMPSON       CLEAR    -11 -18  70 S2        30.05F
WINNIPEG       CLEAR     -6 -13  71 SW6       30.33F WCI -18
LYNN LAKE      CLEAR    -11 -20  64 SW6       29.99F WCI -25
CHURCHILL      CRYSTALS -20 -27  69 W9        30.01F WCI -40
GILLAM         PTCLDY    -9 -20  59 W10       30.04S WCI -28
$$
                ***SASKATCHEWAN***

CITY           SKY/WX    TMP DP  RH WIND       PRES   REMARKS
ESTEVAN        CLEAR    -13 -20  70 SE5       30.24F WCI -25
KINDERSLEY     PTCLDY     5  -4  66 S14       30.00F WCI -12
LLOYDMINSTER   CLOUDY     7  -2  66 S14       29.94F WCI -10
PRINCE ALBERT  MOCLDY    -6 -15  65 SW8       30.13F WCI -21
REGINA         CLEAR     -9 -17  70 SE13      30.19F WCI -30
YORKTON        CLEAR     -9 -18  64 SW10      30.21F WCI -28
N. BATTLEFORD  MOCLDY    -4 -11  71 SE9       30.09F WCI -20
LA RONGE       PTCLDY    -4 -15  59 S2        30.03F
SASKATOON      PTCLDY    -6 -15  65 S10       30.14F WCI -23
SWIFT CURRENT  PTCLDY     3  -4  72 S12       30.01F WCI -13
$$
NOTE: THESE ARE AUTOMATED STATIONS WITH LIMITED QUALITY CONTROL
      "FAIR" INDICATES FEW OR NO CLOUDS BELOW 12,000 FEET WITH NO
      SIGNIFICANT WEATHER AND/OR OBSTRUCTIONS TO VISIBILITY.
      SKY/WX - SKY CONDITION AND SIGNIFICANT WEATHER.
      TMP - AIR TEMPERATURE.    DP   - DEWPOINT TEMPERATURE.
      RH  - RELATIVE HUMIDITY.  PRES - PRESSURE.
      HX  - HEAT INDEX.         WCI  - WIND CHILL INDEX.
$



USA.gov is the U.S. government's official web portal to all federal, state and local government web resources and services.